Weather History for Plainview, TX

Change the Weather History Date:

Sunday, February 10, 2013

  Actual Average Record
Temperature  
Mean Temperature 44 °F -  
Max Temperature 55 °F 52 °F 81 °F (1922)
Min Temperature 33 °F 25 °F 0 °F (1929)
Degree Days  
Heating Degree Days 21    
Moisture  
Dew Point 11 °F    
Average Humidity 31    
Maximum Humidity 48    
Minimum Humidity 12    
Precipitation  
Precipitation 0.00 in - - ()
Sea Level Pressure  
Sea Level Pressure 29.84 in    
Wind  
Wind Speed 15 mph (West)    
Max Wind Speed 25 mph    
Max Gust Speed 31 mph    
Visibility 10 miles    
Events      
Averages and records for this station are not official NWS values.
T = Trace of Precipitation, MM = Missing Value Source: NWS Daily Summary

Daily Weather History Graph

Daily Weather History Graph

Search for Another Location

Airport:

Trip Planner

Search our weather history database for the weather conditions in past years. The results will help you decide how hot, cold, wet, or windy it might be!

Date:

Astronomy

Feb. 10, 2013 Rise Set
Actual Time 7:36 AM CST 6:26 PM CST
Civil Twilight 7:10 AM CST 6:52 PM CST
Nautical Twilight 6:41 AM CST 7:21 PM CST
Astronomical Twilight 6:11 AM CST 7:50 PM CST
Moon 7:30 AM CST (2/10) 7:14 PM CST (2/10)
Length of Visible Light 11h 41m
Length of Day
10h 49m
New Moon, 0% of the Moon is Illuminated
Feb 10
New Moon
Feb 17
First Quarter
Feb 25
Full
Mar 4
Last Quarter
Mar 11
New

Hourly Weather History & Observations

Time (CST) Temp. Windchill Dew Point Humidity Pressure Visibility Wind Dir Wind Speed Gust Speed Precip Events Conditions
12:15 AM 39.2 °F 32.5 °F 17.6 °F 42% 29.75 in 10.0 mi WSW 10.4 mph - N/A   Clear
12:35 AM 39.2 °F 31.6 °F 15.8 °F 39% 29.76 in 10.0 mi WSW 12.7 mph - N/A   Clear
12:55 AM 39.2 °F 30.2 °F 15.8 °F 39% 29.75 in 10.0 mi West 17.3 mph - N/A   Clear
1:15 AM 39.2 °F 31.6 °F 15.8 °F 39% 29.75 in 10.0 mi WSW 12.7 mph 18.4 mph N/A   Clear
1:35 AM 35.6 °F 27.5 °F 14.0 °F 41% 29.75 in 10.0 mi WSW 11.5 mph - N/A   Clear
1:55 AM 37.4 °F 28.5 °F 14.0 °F 38% 29.75 in 10.0 mi WSW 15.0 mph - N/A   Clear
2:15 AM 35.6 °F 25.5 °F 14.0 °F 41% 29.74 in 10.0 mi West 17.3 mph - N/A   Clear
2:35 AM 35.6 °F 27.1 °F 14.0 °F 41% 29.74 in 10.0 mi WSW 12.7 mph - N/A   Clear
2:55 AM 35.6 °F 24.8 °F 12.2 °F 38% 29.74 in 10.0 mi West 19.6 mph - N/A   Clear
3:15 AM 39.2 °F 29.6 °F 12.2 °F 33% 29.74 in 10.0 mi West 19.6 mph 27.6 mph N/A   Clear
3:35 AM 35.6 °F 25.2 °F 12.2 °F 38% 29.74 in 10.0 mi West 18.4 mph 24.2 mph N/A   Clear
3:55 AM 35.6 °F 25.9 °F 12.2 °F 38% 29.74 in 10.0 mi WSW 16.1 mph 21.9 mph N/A   Clear
4:15 AM 35.6 °F 27.5 °F 12.2 °F 38% 29.74 in 10.0 mi WSW 11.5 mph - N/A   Clear
4:35 AM 35.6 °F 25.5 °F 12.2 °F 38% 29.74 in 10.0 mi West 17.3 mph 23.0 mph N/A   Clear
4:55 AM 35.6 °F 25.9 °F 12.2 °F 38% 29.74 in 10.0 mi West 16.1 mph - N/A   Clear
5:15 AM 35.6 °F 24.5 °F 12.2 °F 38% 29.75 in 10.0 mi West 20.7 mph 26.5 mph N/A   Clear
5:35 AM 35.6 °F 24.8 °F 12.2 °F 38% 29.75 in 10.0 mi West 19.6 mph 25.3 mph N/A   Clear
5:55 AM 35.6 °F 24.5 °F 14.0 °F 41% 29.76 in 10.0 mi West 20.7 mph 25.3 mph N/A   Clear
6:15 AM 35.6 °F 25.2 °F 14.0 °F 41% 29.77 in 10.0 mi West 18.4 mph 25.3 mph N/A   Clear
6:35 AM 33.8 °F 23.5 °F 12.2 °F 41% 29.77 in 10.0 mi West 16.1 mph - N/A   Clear
6:55 AM 33.8 °F 23.5 °F 14.0 °F 44% 29.78 in 10.0 mi West 16.1 mph 20.7 mph N/A   Clear
7:15 AM 33.8 °F 23.2 °F 14.0 °F 44% 29.78 in 10.0 mi WSW 17.3 mph - N/A   Clear
7:35 AM 33.8 °F 23.9 °F 14.0 °F 44% 29.79 in 10.0 mi WSW 15.0 mph - N/A   Clear
7:55 AM 33.8 °F 24.3 °F 14.0 °F 44% 29.80 in 10.0 mi WSW 13.8 mph - N/A   Clear
8:15 AM 33.8 °F 24.3 °F 14.0 °F 44% 29.81 in 10.0 mi WSW 13.8 mph - N/A   Clear
8:35 AM 33.8 °F 23.9 °F 14.0 °F 44% 29.82 in 10.0 mi WSW 15.0 mph - N/A   Clear
8:55 AM 35.6 °F 25.5 °F 14.0 °F 41% 29.84 in 10.0 mi West 17.3 mph 21.9 mph N/A   Clear
9:15 AM 39.2 °F 29.3 °F 15.8 °F 39% 29.83 in 10.0 mi West 20.7 mph 26.5 mph N/A   Clear
9:35 AM 39.2 °F 28.3 °F 15.8 °F 39% 29.84 in 10.0 mi West 25.3 mph 28.8 mph N/A   Clear
9:55 AM 41.0 °F 31.6 °F 15.8 °F 36% 29.84 in 10.0 mi West 20.7 mph 31.1 mph N/A   Clear
10:15 AM 42.8 °F 33.5 °F 15.8 °F 34% 29.85 in 10.0 mi WNW 23.0 mph - N/A   Clear
10:35 AM 42.8 °F 33.3 °F 15.8 °F 34% 29.86 in 10.0 mi West 24.2 mph 29.9 mph N/A   Clear
10:55 AM 46.4 °F 37.9 °F 17.6 °F 32% 29.86 in 10.0 mi West 25.3 mph 29.9 mph N/A   Clear
11:15 AM 50.0 °F - 17.6 °F 28% 29.85 in 10.0 mi WNW 20.7 mph 29.9 mph N/A   Clear
11:35 AM 50.0 °F - 14.0 °F 24% 29.85 in 10.0 mi West 21.9 mph - N/A   Clear
11:55 AM 50.0 °F - 14.0 °F 24% 29.85 in 10.0 mi WNW 20.7 mph 28.8 mph N/A   Clear
12:15 PM 51.8 °F - 14.0 °F 22% 29.84 in 10.0 mi West 20.7 mph 25.3 mph N/A   Clear
12:35 PM 53.6 °F - 12.2 °F 19% 29.84 in 10.0 mi West 21.9 mph 26.5 mph N/A   Clear
12:55 PM 53.6 °F - 10.4 °F 18% 29.84 in 10.0 mi West 19.6 mph 25.3 mph N/A   Clear
1:15 PM 53.6 °F - 10.4 °F 18% 29.82 in 10.0 mi West 18.4 mph 26.5 mph N/A   Clear
1:35 PM 53.6 °F - 10.4 °F 18% 29.82 in 10.0 mi West 18.4 mph 23.0 mph N/A   Clear
1:55 PM 53.6 °F - 8.6 °F 16% 29.82 in 10.0 mi West 17.3 mph 23.0 mph N/A   Clear
2:15 PM 53.6 °F - 8.6 °F 16% 29.82 in 10.0 mi West 16.1 mph 23.0 mph N/A   Clear
2:35 PM 55.4 °F - 8.6 °F 15% 29.81 in 10.0 mi West 15.0 mph - N/A   Clear
3:15 PM 55.4 °F - 8.6 °F 15% 29.82 in 10.0 mi West 15.0 mph - N/A   Clear
3:35 PM 55.4 °F - 3.2 °F 12% 29.82 in 10.0 mi West 16.1 mph 24.2 mph N/A   Clear
3:55 PM 55.4 °F - 5.0 °F 13% 29.83 in 10.0 mi West 16.1 mph 19.6 mph N/A   Clear
4:15 PM 55.4 °F - 3.2 °F 12% 29.83 in 10.0 mi West 16.1 mph 21.9 mph N/A   Clear
4:35 PM 55.4 °F - 5.0 °F 13% 29.84 in 10.0 mi West 17.3 mph 21.9 mph N/A   Clear
4:55 PM 53.6 °F - 3.2 °F 13% 29.85 in 10.0 mi West 17.3 mph - N/A   Clear
5:15 PM 53.6 °F - 3.2 °F 13% 29.86 in 10.0 mi West 16.1 mph - N/A   Clear
5:35 PM 53.6 °F - 3.2 °F 13% 29.86 in 10.0 mi West 10.4 mph - N/A   Clear
5:55 PM 53.6 °F - 5.0 °F 14% 29.88 in 10.0 mi West 11.5 mph - N/A   Clear
6:15 PM 50.0 °F - 3.2 °F 15% 29.88 in 10.0 mi West 9.2 mph - N/A   Clear
6:35 PM 46.4 °F 41.9 °F 5.0 °F 18% 29.89 in 10.0 mi West 9.2 mph - N/A   Clear
6:55 PM 42.8 °F 39.3 °F 5.0 °F 21% 29.90 in 10.0 mi West 5.8 mph - N/A   Clear
7:15 PM 42.8 °F 40.1 °F 5.0 °F 21% 29.91 in 10.0 mi West 4.6 mph - N/A   Clear
7:35 PM 41.0 °F 39.0 °F 5.0 °F 23% 29.92 in 10.0 mi SW 3.5 mph - N/A   Clear
7:55 PM 41.0 °F - 6.8 °F 24% 29.93 in 10.0 mi Calm Calm - N/A   Clear
8:15 PM 42.8 °F - 6.8 °F 23% 29.94 in 10.0 mi Calm Calm - N/A   Clear
8:35 PM 42.8 °F - 6.8 °F 23% 29.94 in 10.0 mi Calm Calm - N/A   Clear
8:55 PM 41.0 °F - 6.8 °F 24% 29.94 in 10.0 mi Calm Calm - N/A   Clear
9:15 PM 39.2 °F - 8.6 °F 28% 29.95 in 10.0 mi Calm Calm - N/A   Clear
9:35 PM 35.6 °F 29.2 °F 8.6 °F 33% 29.96 in 10.0 mi ENE 8.1 mph - N/A   Clear
9:55 PM 35.6 °F 29.2 °F 10.4 °F 35% 29.97 in 10.0 mi East 8.1 mph - N/A   Clear
10:15 PM 39.2 °F 32.5 °F 12.2 °F 33% 29.97 in 10.0 mi ESE 10.4 mph - N/A   Clear
10:35 PM 39.2 °F 33.6 °F 14.0 °F 36% 29.98 in 10.0 mi ESE 8.1 mph - N/A   Clear
10:55 PM 35.6 °F 29.9 °F 14.0 °F 41% 29.98 in 10.0 mi East 6.9 mph - N/A   Clear
11:15 PM 35.6 °F 29.9 °F 15.8 °F 44% 29.99 in 10.0 mi East 6.9 mph - N/A   Clear
11:35 PM 35.6 °F 29.2 °F 14.0 °F 41% 29.99 in 10.0 mi East 8.1 mph - N/A   Clear
11:55 PM 33.8 °F 28.6 °F 15.8 °F 48% 30.00 in 10.0 mi East 5.8 mph - N/A   Clear